Regional Weather Roundup
Issued by NWS

Home | Current Version | Previous Version | Graphics & Text | Print | Product List | Glossary On
Versions: 1 2 3 4 5 6 7 8 9 10 11 12 13 14 15 16 17 18 19 20 21 22 23 24 25 26 27 28 29 30 31 32 33 34 35 36 37 38 39 40 41 42 43 44 45 46 47 48 49 50
000
ASUS45 KBOU 311707
RWRCO

WEATHER ROUNDUP FOR COLORADO
NATIONAL WEATHER SERVICE DENVER/BOULDER CO
1100 AM MDT SUN AUG 31 2014

NOTE: "FAIR" INDICATES FEW OR NO CLOUDS BELOW 12000 FEET WITH NO
SIGNIFICANT WEATHER AND/OR OBSTRUCTIONS TO VISIBILITY.

COZ001>005-013-030-031-311800-
...NORTHWEST COLORADO...

CITY           SKY/WX    TMP DP  RH WIND       PRES   REMARKS
CRAIG          CLOUDY    58  44  60 NW9       30.10R
HAYDEN         CLOUDY    55  45  67 NW12      30.10R
MEEKER         PTSUNNY   65  46  50 NE21G26   30.07R
MOUNT WERNER   NOT AVBL
STEAMBOAT SPGS CLOUDY    56  47  70 W5        30.09S
WALDEN         CLOUDY    50  43  76 CALM      30.13F
$$

COZ006>008-011-311800-
...WEST CENTRAL VALLEYS...

CITY           SKY/WX    TMP DP  RH WIND       PRES   REMARKS
GRAND JUNCTION PTSUNNY   77  45  32 CALM      29.93R
MONTROSE       MOSUNNY   78  35  21 SW17G24   30.03S
EAGLE          PTSUNNY   64  50  59 NW5       30.05S
RIFLE          PTSUNNY   66  50  56 CALM      29.98R
DELTA          NOT AVBL
NUCLA          MOSUNNY   77  34  20 SW16G29   30.07F
$$

COZ017>023-064>068-311800-
...SOUTHWEST COLORADO...

CITY           SKY/WX    TMP DP  RH WIND       PRES   REMARKS
DURANGO        SUNNY     73  38  27 VRB7      30.17S
CORTEZ         SUNNY     80  37  21 SW17      30.11S
PAGOSA SPRINGS SUNNY     70  32  24 SW13G21   30.23S
TELLURIDE      SUNNY     66  32  28 W13G29    30.28F
WOLF CREEK PAS SUNNY     46  34  61 SW20G29   30.47S
$$

COZ009-010-012-014-032>034-037-058>063-311800-
...CENTRAL COLORADO...

CITY           SKY/WX    TMP DP  RH WIND       PRES   REMARKS
ASPEN          CLOUDY    66  34  30 SW8       30.11R
BUENA VISTA    PTSUNNY   73  28  18 W20G28    30.11F
COPPER MTN     RAIN      45  36  70 S15G22    30.39F
BERTHOUD PASS  FOG       34  34 100 MISG      30.40F VSB<1/4
COTTONWOOD PAS PTSUNNY   64  23  20 W18G32    30.24F
GUNNISON       MOSUNNY   64  41  42 W5        30.16F
KREMMLING      CLOUDY    54  45  71 CALM      30.11F
LEADVILLE      CLOUDY    55  33  43 W14G24    30.25F
MONARCH PASS   PTSUNNY   50  30  46 W32G47    30.50S
SALIDA         PTSUNNY   76  30  18 W21G40    30.16F
SUNLIGHT       CLOUDY    52  41  66 CALM      30.32R
WILKERSON PASS NOT AVBL
$$

COZ069>075-311800-
...SAN LUIS VALLEY/SANGRE DE CRISTO MOUNTAINS...

CITY           SKY/WX    TMP DP  RH WIND       PRES   REMARKS
ALAMOSA        SUNNY     77  34  21 W24G32    30.15F
LA VETA PASS   NOT AVBL
SAGUACHE       NOT AVBL
$$

COZ035-036-038>040-311800-
...NORTHERN COLORADO FRONT RANGE...

CITY           SKY/WX    TMP DP  RH WIND       PRES   REMARKS
DENVER INTL AP PTSUNNY   68  51  54 NE6       29.99S
DMNS CITY PARK   N/A     70  49  47 N2G12     29.98F
AURORA         MOSUNNY   69  51  51 NE8       30.01S
FRONT RANGE AP MOSUNNY   68  50  52 NE9G17    30.00F
ERIE MUNI ARPT MOSUNNY   68  50  53 CALM      29.95F
BOULDER MUN AP MOSUNNY   68  50  52 CALM      29.96F
CENTENNIAL     MOSUNNY   68  46  45 NE10      30.01S
BROOMFIELD     NOT AVBL
FORT COLLINS   PTSUNNY   66  54  63 S8        29.94F
LONGMONT       PTSUNNY   69  52  54 SE6       29.96F HAZE
$$

COZ041-046-047-076>085-087-088-311800-
...PIKES PEAK/PALMER DIVIDE AND SOUTHERN FOOTHILLS...

CITY           SKY/WX    TMP DP  RH WIND       PRES   REMARKS
COLO. SPRINGS  MOSUNNY   76  44  32 E9        29.98F
A. F. ACADEMY  SUNNY     74  41  30 VRB5      30.00R
ELLICOTT       SUNNY     80  40  23 SW17      29.97F
FALCON         SUNNY     77  40  26 SW8       30.05S
FORT CARSON    MOSUNNY   79  46  31 VRB5      29.95F
LIMON          SUNNY     73  49  42 N20G26    29.96R
MONUMENT HILL  SUNNY     64  46  52 NE10G17   30.07R
TRINIDAD       SUNNY     87  34  15 W12G24    29.97F
$$

COZ042>045-048>051-090-091-311800-
...NORTHEAST COLORADO...

CITY           SKY/WX    TMP DP  RH WIND       PRES   REMARKS
GREELEY ARPT   CLOUDY    68  48  49 W14G23    29.92F
AKRON          CLOUDY    65  51  60 N16       29.95R
BURLINGTON     PTSUNNY   81  56  42 NW14G23   29.86R
WRAY             N/A     71  54  53 N17G28    29.87R
STERLING       CLOUDY    72  55  56 CALM      29.91R
HOLYOKE        PTSUNNY   72  54  53 NW15G25   29.88S
FORT MORGAN    CLOUDY    75  45  34 NW15G24   29.93F
$$

COZ086-089-092>099-311800-
...SOUTHEAST COLORADO...

CITY           SKY/WX    TMP DP  RH WIND       PRES   REMARKS
PUEBLO         SUNNY     81  44  27 NE5       29.88F
LA JUNTA       MOSUNNY   84  48  28 SW8       29.85F
LAMAR          MOSUNNY   80  52  37 W7        29.80F
SPRINGFIELD      N/A     91  41  17 SW14G28   29.86F
$$



USA.gov is the U.S. government's official web portal to all federal, state and local government web resources and services.